Miscellaneous Local Product
Issued by NWS Hastings, NE

Home | Current Version | Previous Version | Text Only | Print | Product List | Glossary Off
Versions: 1 2 3 4 5 6 7 8 9 10 11 12 13 14 15 16 17 18 19 20 21 22 23 24 25 26 27 28 29 30 31 32 33 34 35 36 37 38 39 40 41 42 43 44 45 46 47 48 49 50

000
AXUS43 KGID 302002
MISGRI

GID CWA HOURLY WEATHER ROUNDUP
NATIONAL WEATHER SERVICE HASTINGS NE
300 PM CDT TUE JUN 30 2015

NOTE: "FAIR" INDICATES FEW OR NO CLOUDS BELOW 12,000 FEET WITH NO
SIGNIFICANT WEATHER AND/OR OBSTRUCTIONS TO VISIBILITY.

...SOUTH CENTRAL NEBRASKA...

CITY           SKY/WX    TMP DP  RH WIND       PRES   REMARKS
GRAND ISLAND   PTSUNNY   91  68  46 E10       29.89F HX  95
HASTINGS       PTSUNNY   92  63  38 SW9       29.89F HX  93
KEARNEY        MOSUNNY   93  63  36 SW8       29.89F HX  94
ORD            CLOUDY    89  67  47 SE9       29.87F HX  92
YORK           PTSUNNY   86  68  54 E10       29.91F
AURORA         PTSUNNY   88  68  52 SE13      29.89F HX  92
LEXINGTON      MOSUNNY   96  56  25 W6        29.90F HX  94
HOLDREGE       MOSUNNY   93  56  27 SW9       29.91F HX  91
HEBRON         PTSUNNY   94  49  21 W7        29.88F HX  91

...NEBRASKA PANHANDLE...

CITY           SKY/WX    TMP DP  RH WIND       PRES   REMARKS
CHADRON        MOSUNNY   93  64  38 NE5       29.90F HX  94
ALLIANCE       MOSUNNY   93  54  26 SW12      29.96F HX  91
SCOTTSBLUFF    MOSUNNY   96  49  20 VRB3      29.96F HX  93
SIDNEY         MOSUNNY   90  53  28 S3        30.01F

...WESTERN AND NORTH CENTRAL NEBRASKA...

CITY           SKY/WX    TMP DP  RH WIND       PRES   REMARKS
VALENTINE      CLOUDY    83  65  54 E12       29.89F
AINSWORTH      CLOUDY    82  65  57 SE13      29.90F
ONEILL         CLOUDY    81  64  55 E13       29.92F
BROKEN BOW     PTSUNNY   91  66  43 SW9       29.89F HX  93
IMPERIAL       SUNNY     98  50  19 SW13G21   29.94F HX  95
NORTH PLATTE   MOSUNNY   94  60  32 SW10      29.90F HX  94
MCCOOK         SUNNY     98  52  21 W7        29.90F HX  95

...EASTERN NEBRASKA...

CITY           SKY/WX    TMP DP  RH WIND       PRES   REMARKS
NORFOLK        CLOUDY    73  65  75 E6        29.92F
SO SIOUX CITY  LGT RAIN  73  66  78 E5        29.92F
TEKAMAH        LGT RAIN  74  68  81 NE9       29.91S
COLUMBUS       CLOUDY   N/A N/A N/A MISG        N/A
ALBION         CLOUDY    82  63  51 E12G20    29.92F
OMAHA EPPLEY   LGT RAIN  77  65  66 CALM      29.90F
OFFUTT AFB     CLOUDY    78  67  69 NE3       29.90F
MILLARD        CLOUDY    79  65  63 CALM      29.91F
LINCOLN        PTSUNNY   83  66  56 E15       29.91F HAZE
NEBRASKA CITY  CLOUDY    79  61  54 E6        29.92F
BEATRICE       MOSUNNY   89  67  48 E8        29.89F HX  93
FALLS CITY     CLOUDY    81  68  64 NE10      29.92F

...NORTHERN KANSAS...

CITY           SKY/WX    TMP DP  RH WIND       PRES   REMARKS
GOODLAND       MOSUNNY   93  47  20 VRB6G18   29.99F
HILL CITY      MOSUNNY  102  49  16 W12G18    29.90F HX  99
NORTON         CLEAR     99  36  11 S6        29.89F HX  93
PHILLIPSBURG   SUNNY    102  45  14 SW6       29.87F HX  98
SMITH CENTER   SUNNY     99  45  15 S8G17     29.88F HX  94
HAYS           MOSUNNY  100  50  18 SW10G23   29.90F HX  97
RUSSELL        PTSUNNY  101  52  19 W13G26    29.88F HX  98
CONCORDIA      MOSUNNY   92  61  35 SW7       29.88F HX  92
SALINA         MOSUNNY  102  58  23 W13G20    29.89F HX 102
TOPEKA         PTSUNNY   91  63  39 NE5       29.91F HX  92



USA.gov is the U.S. government's official web portal to all federal, state and local government web resources and services.